Data No,UTC Date,UTC Time,Latitude,Longitude,Course(deg),Temp(degC),Sal(psu),Fluor Int,Blank
6316,2003/8/4,16:27:09, 18-57.571N,119-59.977E,232.1,29.511,33.5246,210,173
6317,2003/8/4,16:28:09, 18-57.493N,119-59.852E,235.4,29.5,33.5271,196,173
6318,2003/8/4,16:29:09, 18-57.415N,119-59.725E,236.6,29.495,33.5292,208,173
6319,2003/8/4,16:30:09, 18-57.333N,119-59.600E,240.2,29.497,33.5321,211,173
6320,2003/8/4,16:31:09, 18-57.256N,119-59.470E,236.1,29.495,33.5312,207,173
6321,2003/8/4,16:32:09, 18-57.175N,119-59.343E,237.5,29.49,33.5352,200,173
6322,2003/8/4,16:33:09, 18-57.090N,119-59.213E,237.2,29.494,33.5375,202,173
6323,2003/8/4,16:34:09, 18-57.011N,119-59.086E,238.6,29.496,33.5408,202,173
6324,2003/8/4,16:35:09, 18-56.926N,119-58.959E,237.2,29.491,33.5383,207,173
6325,2003/8/4,16:36:09, 18-56.852N,119-58.832E,236.9,29.49,33.5402,205,173
6326,2003/8/4,16:37:09, 18-56.771N,119-58.710E,238.8,29.494,33.5423,199,173
6327,2003/8/4,16:38:09, 18-56.694N,119-58.582E,236.9,29.485,33.5432,209,173
6328,2003/8/4,16:39:09, 18-56.609N,119-58.456E,235.1,29.486,33.5431,200,173
6329,2003/8/4,16:40:09, 18-56.527N,119-58.333E,229.2,29.489,33.5445,205,173
6330,2003/8/4,16:41:09, 18-56.449N,119-58.207E,231.6,29.483,33.544,198,173
6331,2003/8/4,16:42:09, 18-56.367N,119-58.084E,238.2,29.479,33.5442,206,173
6332,2003/8/4,16:43:09, 18-56.289N,119-57.951E,232,29.478,33.5452,203,173
6333,2003/8/4,16:44:09, 18-56.202N,119-57.817E,231.6,29.483,33.5447,201,173
6334,2003/8/4,16:45:09, 18-56.112N,119-57.686E,230.7,29.481,33.5423,202,173
6335,2003/8/4,16:46:09, 18-56.024N,119-57.547E,231.4,29.474,33.5444,203,173
6336,2003/8/4,16:47:09, 18-55.934N,119-57.415E,231.7,29.477,33.5448,205,173
6337,2003/8/4,16:48:09, 18-55.845N,119-57.275E,228.9,29.469,33.5401,208,173
6338,2003/8/4,16:49:09, 18-55.756N,119-57.136E,235.5,29.467,33.5459,200,173
6339,2003/8/4,16:50:09, 18-55.664N,119-56.993E,233.3,29.465,33.5447,205,173
6341,2003/8/4,16:52:09, 18-55.473N,119-56.708E,241.5,29.473,33.5453,204,173
6342,2003/8/4,16:53:09, 18-55.381N,119-56.566E,233.1,29.472,33.5463,207,173
6343,2003/8/4,16:54:09, 18-55.289N,119-56.426E,235.8,29.476,33.5448,205,173
6344,2003/8/4,16:55:09, 18-55.194N,119-56.289E,233.4,29.472,33.5434,199,173
6345,2003/8/4,16:56:09, 18-55.104N,119-56.151E,236.3,29.477,33.5432,197,173
6346,2003/8/4,16:57:09, 18-55.013N,119-56.005E,234.3,29.479,33.5408,199,173
6347,2003/8/4,16:58:09, 18-54.918N,119-55.858E,234.9,29.473,33.5397,205,173
6348,2003/8/4,16:59:09, 18-54.822N,119-55.713E,233.8,29.468,33.5375,202,173
6349,2003/8/4,17:00:09, 18-54.727N,119-55.571E,230.1,29.467,33.5361,197,173
6350,2003/8/4,17:01:09, 18-54.635N,119-55.424E,239.4,29.458,33.5338,196,173
6351,2003/8/4,17:02:09, 18-54.540N,119-55.276E,234.1,29.459,33.529,207,173
6352,2003/8/4,17:03:09, 18-54.445N,119-55.129E,236.7,29.455,33.525,207,173
6353,2003/8/4,17:04:09, 18-54.355N,119-54.980E,236.4,29.451,33.5223,204,173
6354,2003/8/4,17:05:09, 18-54.259N,119-54.833E,229,29.451,33.519,199,173
6355,2003/8/4,17:06:09, 18-54.167N,119-54.687E,234.3,29.447,33.517,199,173
6356,2003/8/4,17:07:09, 18-54.074N,119-54.545E,238.2,29.447,33.5169,205,173
6357,2003/8/4,17:08:09, 18-53.985N,119-54.403E,230.8,29.45,33.5118,205,173
6358,2003/8/4,17:09:09, 18-53.894N,119-54.263E,234,29.445,33.5143,201,173
6359,2003/8/4,17:10:09, 18-53.805N,119-54.118E,241.6,29.445,33.514,199,173
6360,2003/8/4,17:11:09, 18-53.711N,119-53.980E,237.7,29.448,33.5141,198,173
6361,2003/8/4,17:12:09, 18-53.623N,119-53.832E,237.4,29.447,33.5127,207,173
6362,2003/8/4,17:13:09, 18-53.532N,119-53.691E,227,29.452,33.5135,203,173
6363,2003/8/4,17:14:09, 18-53.442N,119-53.548E,238.2,29.447,33.5141,206,173
6364,2003/8/4,17:15:09, 18-53.353N,119-53.408E,233,29.446,33.5149,207,173
6365,2003/8/4,17:16:09, 18-53.265N,119-53.265E,243.3,29.455,33.5157,196,173
6366,2003/8/4,17:17:09, 18-53.176N,119-53.124E,238.4,29.46,33.5176,208,173
6367,2003/8/4,17:18:09, 18-53.088N,119-52.976E,232.8,29.457,33.5194,202,173
6368,2003/8/4,17:19:09, 18-52.999N,119-52.829E,240.4,29.461,33.5212,211,173
6369,2003/8/4,17:20:09, 18-52.909N,119-52.687E,234.4,29.461,33.5252,204,173
6370,2003/8/4,17:21:09, 18-52.820N,119-52.540E,235.7,29.458,33.5231,202,173
6371,2003/8/4,17:22:09, 18-52.729N,119-52.397E,237.7,29.452,33.5223,200,173
6372,2003/8/4,17:23:09, 18-52.642N,119-52.249E,237.2,29.451,33.5232,204,173
6373,2003/8/4,17:24:09, 18-52.553N,119-52.102E,245.1,29.451,33.5235,205,173
6374,2003/8/4,17:25:09, 18-52.461N,119-51.959E,226.6,29.445,33.5215,214,173
6375,2003/8/4,17:26:09, 18-52.372N,119-51.808E,243,29.435,33.5204,204,173
6376,2003/8/4,17:27:09, 18-52.281N,119-51.660E,240,29.431,33.5214,210,173
6377,2003/8/4,17:28:09, 18-52.188N,119-51.515E,244.5,29.432,33.5215,205,173
6378,2003/8/4,17:29:09, 18-52.098N,119-51.369E,240.9,29.433,33.5225,204,173
6379,2003/8/4,17:30:09, 18-52.005N,119-51.222E,235.4,29.423,33.5302,199,173
6380,2003/8/4,17:31:09, 18-51.914N,119-51.071E,237.6,29.429,33.5298,207,173
6381,2003/8/4,17:32:09, 18-51.821N,119-50.921E,238.9,29.42,33.5411,205,173
6382,2003/8/4,17:33:09, 18-51.731N,119-50.767E,239.6,29.428,33.5402,206,173
6383,2003/8/4,17:34:09, 18-51.637N,119-50.620E,244.4,29.43,33.5386,207,173
6384,2003/8/4,17:35:09, 18-51.543N,119-50.471E,243.5,29.43,33.54,207,173
6385,2003/8/4,17:36:09, 18-51.446N,119-50.320E,238,29.424,33.5395,202,173
6386,2003/8/4,17:37:09, 18-51.348N,119-50.168E,237.5,29.421,33.5389,201,173
6387,2003/8/4,17:38:09, 18-51.251N,119-50.012E,229.4,29.412,33.543,211,173
6388,2003/8/4,17:39:09, 18-51.156N,119-49.857E,231.6,29.413,33.5482,212,173
6389,2003/8/4,17:40:09, 18-51.057N,119-49.707E,235.7,29.418,33.5552,205,173
6390,2003/8/4,17:41:09, 18-50.963N,119-49.555E,231.9,29.418,33.5711,204,173
6391,2003/8/4,17:42:09, 18-50.866N,119-49.407E,230.8,29.424,33.5895,199,173
6392,2003/8/4,17:43:09, 18-50.766N,119-49.261E,234,29.436,33.6042,204,173
6393,2003/8/4,17:44:09, 18-50.669N,119-49.114E,231.2,29.439,33.6365,207,173
6394,2003/8/4,17:45:09, 18-50.572N,119-48.962E,236.1,29.428,33.665,205,173
6395,2003/8/4,17:46:09, 18-50.474N,119-48.811E,234.8,29.426,33.6726,201,173
6396,2003/8/4,17:47:09, 18-50.377N,119-48.662E,230.8,29.42,33.6788,205,173
6397,2003/8/4,17:48:09, 18-50.278N,119-48.514E,233.5,29.414,33.6869,206,173
6398,2003/8/4,17:49:09, 18-50.182N,119-48.366E,241.6,29.417,33.7131,205,173
6399,2003/8/4,17:50:09, 18-50.088N,119-48.220E,242.1,29.408,33.7444,204,173
6400,2003/8/4,17:51:09, 18-49.993N,119-48.072E,237.5,29.415,33.7637,198,173
6401,2003/8/4,17:52:09, 18-49.899N,119-47.925E,233.7,29.415,33.7737,192,173
6402,2003/8/4,17:53:09, 18-49.806N,119-47.779E,230.4,29.418,33.7762,206,173
6403,2003/8/4,17:54:09, 18-49.712N,119-47.638E,239.1,29.42,33.7821,207,173
6404,2003/8/4,17:55:09, 18-49.623N,119-47.497E,229.5,29.419,33.7886,208,173
6405,2003/8/4,17:56:09, 18-49.534N,119-47.355E,242.3,29.415,33.7926,210,173
6406,2003/8/4,17:57:09, 18-49.445N,119-47.215E,235.2,29.408,33.7923,221,173
6407,2003/8/4,17:58:10, 18-49.356N,119-47.075E,235.3,29.402,33.792,204,173
6408,2003/8/4,17:59:09, 18-49.271N,119-46.929E,240.3,29.396,33.7889,204,173
6409,2003/8/4,18:00:09, 18-49.183N,119-46.790E,236.6,29.398,33.7875,198,173
6410,2003/8/4,18:01:09, 18-49.098N,119-46.651E,243.6,29.389,33.7839,208,173
6411,2003/8/4,18:02:10, 18-49.010N,119-46.515E,235.4,29.375,33.7822,209,173
6412,2003/8/4,18:03:09, 18-48.925N,119-46.373E,235.6,29.364,33.7805,208,173
6413,2003/8/4,18:04:09, 18-48.837N,119-46.229E,231.6,29.369,33.7776,213,173
6414,2003/8/4,18:05:09, 18-48.752N,119-46.091E,232.8,29.376,33.7752,201,173
6415,2003/8/4,18:06:09, 18-48.665N,119-45.949E,234.5,29.365,33.7738,193,173
6416,2003/8/4,18:07:09, 18-48.579N,119-45.805E,231.1,29.356,33.771,209,173
6417,2003/8/4,18:08:09, 18-48.490N,119-45.669E,235.6,29.357,33.7723,205,173
6418,2003/8/4,18:09:09, 18-48.402N,119-45.531E,231.5,29.351,33.7706,204,173
6419,2003/8/4,18:10:09, 18-48.319N,119-45.390E,247.7,29.349,33.7715,207,173
6420,2003/8/4,18:11:10, 18-48.235N,119-45.252E,241,29.354,33.7718,207,173
6421,2003/8/4,18:12:09, 18-48.148N,119-45.117E,238.4,29.343,33.7724,208,173
6422,2003/8/4,18:13:09, 18-48.064N,119-44.976E,239.5,29.347,33.7754,212,173
6423,2003/8/4,18:14:09, 18-47.978N,119-44.835E,232.4,29.356,33.778,206,173
6424,2003/8/4,18:15:09, 18-47.891N,119-44.698E,232.8,29.354,33.7787,205,173
6425,2003/8/4,18:16:09, 18-47.804N,119-44.564E,237.9,29.359,33.7781,207,173
6426,2003/8/4,18:17:09, 18-47.719N,119-44.425E,234.8,29.358,33.7808,208,173
6427,2003/8/4,18:18:09, 18-47.631N,119-44.286E,241.9,29.362,33.7777,191,173
6428,2003/8/4,18:19:09, 18-47.544N,119-44.143E,231.9,29.359,33.7765,202,173
6429,2003/8/4,18:20:10, 18-47.452N,119-44.002E,233.5,29.354,33.7757,201,173
6430,2003/8/4,18:21:10, 18-47.364N,119-43.861E,233.8,29.352,33.7756,204,173
6431,2003/8/4,18:22:10, 18-47.272N,119-43.725E,234.1,29.351,33.7751,210,173
6432,2003/8/4,18:23:09, 18-47.186N,119-43.583E,237.6,29.349,33.7754,209,173
6433,2003/8/4,18:24:10, 18-47.097N,119-43.443E,239.7,29.351,33.7761,204,173
6434,2003/8/4,18:25:09, 18-47.006N,119-43.300E,227.2,29.342,33.7751,200,173
6435,2003/8/4,18:26:09, 18-46.915N,119-43.156E,229.8,29.345,33.7716,207,173
6436,2003/8/4,18:27:09, 18-46.824N,119-43.016E,239.2,29.341,33.7728,209,173
6437,2003/8/4,18:28:09, 18-46.732N,119-42.877E,238.6,29.34,33.7741,206,173
6438,2003/8/4,18:29:10, 18-46.640N,119-42.738E,237.6,29.343,33.7683,206,173
6439,2003/8/4,18:30:09, 18-46.547N,119-42.595E,231.9,29.341,33.7607,205,173
6440,2003/8/4,18:31:09, 18-46.453N,119-42.456E,237.2,29.338,33.7557,197,173
6441,2003/8/4,18:32:09, 18-46.360N,119-42.319E,232.2,29.337,33.7508,210,173
6442,2003/8/4,18:33:10, 18-46.272N,119-42.177E,237.3,29.338,33.7455,210,173
6443,2003/8/4,18:34:09, 18-46.176N,119-42.043E,239.4,29.333,33.7422,209,173
6444,2003/8/4,18:35:09, 18-46.085N,119-41.903E,238.2,29.329,33.74,207,173
6445,2003/8/4,18:36:09, 18-45.990N,119-41.756E,233.5,29.323,33.7365,212,173
6446,2003/8/4,18:37:10, 18-45.892N,119-41.615E,239.7,29.32,33.7365,208,173
6447,2003/8/4,18:38:09, 18-45.797N,119-41.473E,229.1,29.318,33.7364,198,173
6448,2003/8/4,18:39:09, 18-45.698N,119-41.330E,239,29.31,33.739,205,173
6449,2003/8/4,18:40:09, 18-45.602N,119-41.185E,240.7,29.298,33.7409,209,173
6450,2003/8/4,18:41:10, 18-45.505N,119-41.046E,232,29.297,33.7482,205,173
6451,2003/8/4,18:42:10, 18-45.411N,119-40.902E,232.4,29.293,33.7541,200,173
6452,2003/8/4,18:43:09, 18-45.311N,119-40.761E,243.1,29.297,33.7599,205,173
6453,2003/8/4,18:44:09, 18-45.217N,119-40.620E,223,29.301,33.7645,205,173
6454,2003/8/4,18:45:10, 18-45.121N,119-40.481E,242.2,29.311,33.7711,204,173
6455,2003/8/4,18:46:09, 18-45.020N,119-40.348E,225.9,29.306,33.7763,197,173
6456,2003/8/4,18:47:09, 18-44.924N,119-40.206E,239.3,29.31,33.7807,204,173
6457,2003/8/4,18:48:10, 18-44.824N,119-40.067E,220.3,29.311,33.7835,205,173
6458,2003/8/4,18:49:09, 18-44.721N,119-39.929E,231.6,29.31,33.7835,208,173
6459,2003/8/4,18:50:10, 18-44.622N,119-39.785E,225.9,29.318,33.783,207,173
6460,2003/8/4,18:51:10, 18-44.519N,119-39.647E,229,29.314,33.7843,198,173
6461,2003/8/4,18:52:10, 18-44.422N,119-39.503E,234.3,29.315,33.7855,205,173
6462,2003/8/4,18:53:09, 18-44.320N,119-39.365E,228.4,29.308,33.7849,200,173
6463,2003/8/4,18:54:10, 18-44.219N,119-39.226E,220.3,29.319,33.781,196,173
6464,2003/8/4,18:55:10, 18-44.115N,119-39.089E,237.1,29.325,33.7759,202,173
6465,2003/8/4,18:56:09, 18-44.012N,119-38.955E,236.1,29.346,33.7735,198,173
6466,2003/8/4,18:57:10, 18-43.913N,119-38.819E,237.4,29.364,33.7713,201,173
6467,2003/8/4,18:58:09, 18-43.811N,119-38.693E,225.9,29.376,33.7633,202,173
6468,2003/8/4,18:59:09, 18-43.712N,119-38.556E,240.4,29.388,33.7482,200,173
6469,2003/8/4,19:00:10, 18-43.612N,119-38.418E,224.7,29.388,33.7359,200,173
6470,2003/8/4,19:01:10, 18-43.511N,119-38.283E,239.4,29.392,33.7262,195,173
6471,2003/8/4,19:02:10, 18-43.409N,119-38.146E,232.3,29.391,33.7159,204,173
6472,2003/8/4,19:03:09, 18-43.311N,119-38.015E,230.8,29.394,33.7136,194,173
6473,2003/8/4,19:04:10, 18-43.213N,119-37.881E,234.1,29.399,33.7091,208,173
6474,2003/8/4,19:05:10, 18-43.116N,119-37.746E,241.6,29.404,33.7008,205,173
6475,2003/8/4,19:06:09, 18-43.021N,119-37.614E,227.1,29.408,33.6928,209,173
6476,2003/8/4,19:07:09, 18-42.924N,119-37.488E,223.9,29.409,33.6877,200,173
6477,2003/8/4,19:08:10, 18-42.825N,119-37.359E,237,29.414,33.6823,201,173
6478,2003/8/4,19:09:09, 18-42.729N,119-37.225E,236.4,29.415,33.677,201,173
6479,2003/8/4,19:10:09, 18-42.631N,119-37.092E,245.3,29.421,33.674,206,173
6480,2003/8/4,19:11:09, 18-42.532N,119-36.958E,233.8,29.422,33.6722,205,173
6481,2003/8/4,19:12:10, 18-42.433N,119-36.824E,233.7,29.425,33.669,200,173
6482,2003/8/4,19:13:10, 18-42.334N,119-36.685E,231.7,29.427,33.6659,206,173
6483,2003/8/4,19:14:09, 18-42.233N,119-36.549E,233.3,29.427,33.6638,204,173
6484,2003/8/4,19:15:10, 18-42.134N,119-36.412E,234.2,29.43,33.6601,200,173
6485,2003/8/4,19:16:10, 18-42.032N,119-36.281E,229.3,29.433,33.6561,205,173
6486,2003/8/4,19:17:09, 18-41.932N,119-36.143E,229.2,29.43,33.653,206,173
6487,2003/8/4,19:18:09, 18-41.831N,119-36.004E,234.8,29.435,33.6496,202,173
6488,2003/8/4,19:19:10, 18-41.730N,119-35.863E,232.7,29.437,33.6481,210,173
6489,2003/8/4,19:20:10, 18-41.629N,119-35.727E,224.8,29.44,33.6477,204,173
6490,2003/8/4,19:21:10, 18-41.530N,119-35.588E,233.5,29.444,33.6486,205,173
6491,2003/8/4,19:22:09, 18-41.430N,119-35.458E,228.1,29.446,33.6504,204,173
6492,2003/8/4,19:23:10, 18-41.333N,119-35.319E,234.1,29.441,33.6506,209,173
6493,2003/8/4,19:24:10, 18-41.233N,119-35.185E,238.1,29.448,33.6511,201,173
6494,2003/8/4,19:25:09, 18-41.134N,119-35.051E,233.4,29.444,33.651,201,173
6495,2003/8/4,19:26:09, 18-41.034N,119-34.918E,226.6,29.441,33.651,204,173
6496,2003/8/4,19:27:10, 18-40.936N,119-34.791E,247.3,29.445,33.6493,207,173
6497,2003/8/4,19:28:10, 18-40.840N,119-34.666E,233.4,29.448,33.6482,201,173
6498,2003/8/4,19:29:09, 18-40.743N,119-34.534E,224.9,29.445,33.6495,202,173
6499,2003/8/4,19:30:09, 18-40.641N,119-34.403E,232.4,29.447,33.6498,203,173
6500,2003/8/4,19:31:10, 18-40.542N,119-34.267E,228.1,29.446,33.6509,198,173
6501,2003/8/4,19:32:10, 18-40.438N,119-34.133E,231.5,29.454,33.6524,209,173
6502,2003/8/4,19:33:10, 18-40.334N,119-33.999E,232.4,29.45,33.6549,205,173
6503,2003/8/4,19:34:09, 18-40.235N,119-33.862E,243.6,29.449,33.6602,203,173
6504,2003/8/4,19:35:09, 18-40.133N,119-33.729E,237.9,29.43,33.6653,199,173
6505,2003/8/4,19:36:10, 18-40.035N,119-33.596E,229.6,29.409,33.6704,204,173
6506,2003/8/4,19:37:10, 18-39.935N,119-33.460E,230.1,29.4,33.6767,204,173
6507,2003/8/4,19:38:09, 18-39.839N,119-33.331E,226.7,29.4,33.685,203,173
6508,2003/8/4,19:39:10, 18-39.743N,119-33.194E,238.8,29.388,33.6975,200,173
6509,2003/8/4,19:40:10, 18-39.643N,119-33.063E,230.3,29.399,33.716,200,173
6510,2003/8/4,19:41:10, 18-39.545N,119-32.928E,227,29.41,33.7385,207,173
6511,2003/8/4,19:42:09, 18-39.449N,119-32.796E,234.1,29.439,33.7768,209,173
6512,2003/8/4,19:43:10, 18-39.353N,119-32.666E,237.7,29.439,33.8316,209,173
6513,2003/8/4,19:44:10, 18-39.261N,119-32.535E,237.7,29.438,33.8584,196,173
6515,2003/8/4,19:46:10, 18-39.069N,119-32.270E,227,29.434,33.8623,203,173
6518,2003/8/4,19:49:10, 18-38.787N,119-31.880E,242,29.416,33.8393,192,173
6519,2003/8/4,19:50:10, 18-38.693N,119-31.749E,236,29.418,33.8349,199,173
6520,2003/8/4,19:51:09, 18-38.603N,119-31.620E,237.6,29.416,33.8337,208,173
6521,2003/8/4,19:52:10, 18-38.508N,119-31.490E,226.8,29.407,33.8319,196,173
6522,2003/8/4,19:53:10, 18-38.415N,119-31.359E,236.2,29.402,33.8329,199,173
6523,2003/8/4,19:54:10, 18-38.321N,119-31.226E,238.4,29.39,33.8336,199,173
6524,2003/8/4,19:55:09, 18-38.231N,119-31.093E,236,29.37,33.8359,206,173
6525,2003/8/4,19:56:10, 18-38.133N,119-30.958E,230.6,29.364,33.8393,206,173
6526,2003/8/4,19:57:10, 18-38.038N,119-30.821E,237.1,29.37,33.8417,205,173
6527,2003/8/4,19:58:10, 18-37.941N,119-30.686E,233.8,29.372,33.8436,204,173
6528,2003/8/4,19:59:10, 18-37.847N,119-30.551E,244.5,29.37,33.8453,201,173
6529,2003/8/4,20:00:10, 18-37.756N,119-30.417E,236.1,29.499,33.8476,210,173
6530,2003/8/4,20:01:10, 18-37.657N,119-30.281E,226.7,29.376,33.8487,198,173
6531,2003/8/4,20:02:10, 18-37.560N,119-30.148E,239.5,29.389,33.8497,196,173
6532,2003/8/4,20:03:10, 18-37.466N,119-30.016E,232.4,29.397,33.8505,202,173
6533,2003/8/4,20:04:10, 18-37.372N,119-29.881E,246,29.403,33.8521,201,173
6534,2003/8/4,20:05:10, 18-37.275N,119-29.745E,236.3,29.413,33.8556,199,173
6535,2003/8/4,20:06:10, 18-37.184N,119-29.608E,245.1,29.411,33.8579,202,173
6536,2003/8/4,20:07:10, 18-37.088N,119-29.479E,240.3,29.425,33.86,207,173
6537,2003/8/4,20:08:10, 18-36.997N,119-29.344E,230.1,29.44,33.8604,205,173
6538,2003/8/4,20:09:10, 18-36.902N,119-29.216E,234.1,29.447,33.8557,205,173
6539,2003/8/4,20:10:09, 18-36.811N,119-29.088E,229.6,29.446,33.8504,212,173
6540,2003/8/4,20:11:10, 18-36.718N,119-28.963E,237.8,29.451,33.846,204,173
6541,2003/8/4,20:12:10, 18-36.623N,119-28.837E,235.4,29.458,33.8425,206,173
6542,2003/8/4,20:13:10, 18-36.528N,119-28.706E,230.5,29.463,33.8393,210,173
6543,2003/8/4,20:14:10, 18-36.433N,119-28.576E,227,29.46,33.8366,210,173
6544,2003/8/4,20:15:10, 18-36.339N,119-28.453E,237.6,29.459,33.8338,205,173
6545,2003/8/4,20:16:10, 18-36.247N,119-28.323E,219.1,29.462,33.8317,203,173
6546,2003/8/4,20:17:10, 18-36.151N,119-28.193E,218.9,29.471,33.8313,198,173
6547,2003/8/4,20:18:10, 18-36.058N,119-28.065E,229.4,29.477,33.8283,205,173
6548,2003/8/4,20:19:10, 18-35.969N,119-27.943E,212,29.478,33.8243,204,173
6549,2003/8/4,20:20:10, 18-35.878N,119-27.821E,225.6,29.488,33.821,195,173
6550,2003/8/4,20:21:10, 18-35.789N,119-27.694E,236.1,29.497,33.8208,208,173
6551,2003/8/4,20:22:10, 18-35.698N,119-27.566E,232.9,29.505,33.8201,207,173
6552,2003/8/4,20:23:10, 18-35.609N,119-27.437E,232.5,29.513,33.8172,203,173
6553,2003/8/4,20:24:10, 18-35.511N,119-27.307E,228.5,29.522,33.8128,201,173
6554,2003/8/4,20:25:10, 18-35.415N,119-27.169E,231.2,29.527,33.811,203,173
6555,2003/8/4,20:26:10, 18-35.316N,119-27.035E,234,29.531,33.8094,209,173
6556,2003/8/4,20:27:10, 18-35.212N,119-26.903E,228.2,29.534,33.8081,207,173
6557,2003/8/4,20:28:10, 18-35.116N,119-26.775E,223,29.538,33.8048,201,173
6558,2003/8/4,20:29:10, 18-35.016N,119-26.645E,237.9,29.543,33.7985,203,173
6559,2003/8/4,20:30:10, 18-34.920N,119-26.517E,232.3,29.543,33.7916,210,173
6560,2003/8/4,20:31:10, 18-34.822N,119-26.389E,237,29.55,33.7863,205,173
6561,2003/8/4,20:32:10, 18-34.726N,119-26.260E,232.6,29.553,33.7795,207,173
6562,2003/8/4,20:33:10, 18-34.626N,119-26.128E,229.6,29.554,33.7719,203,173
6563,2003/8/4,20:34:10, 18-34.524N,119-25.991E,233.2,29.558,33.7644,205,173
6564,2003/8/4,20:35:10, 18-34.422N,119-25.857E,233.7,29.566,33.7564,204,173
6565,2003/8/4,20:36:10, 18-34.322N,119-25.724E,236.3,29.564,33.7519,207,173
6566,2003/8/4,20:37:10, 18-34.220N,119-25.593E,227.7,29.566,33.7491,207,173
6567,2003/8/4,20:38:10, 18-34.119N,119-25.457E,230.7,29.573,33.747,208,173
6568,2003/8/4,20:39:10, 18-34.019N,119-25.322E,247.2,29.578,33.7451,202,173
6569,2003/8/4,20:40:10, 18-33.914N,119-25.191E,222.2,29.577,33.7429,198,173
6570,2003/8/4,20:41:10, 18-33.816N,119-25.061E,218.9,29.576,33.7389,195,173
6571,2003/8/4,20:42:10, 18-33.709N,119-24.928E,234.4,29.578,33.7352,195,173
6572,2003/8/4,20:43:10, 18-33.611N,119-24.795E,233.9,29.58,33.7313,198,173
6573,2003/8/4,20:44:10, 18-33.510N,119-24.666E,230,29.577,33.7297,200,173
6574,2003/8/4,20:45:10, 18-33.410N,119-24.532E,223,29.58,33.7299,200,173
6575,2003/8/4,20:46:10, 18-33.307N,119-24.400E,241.7,29.59,33.7328,203,173
6576,2003/8/4,20:47:10, 18-33.205N,119-24.276E,220.5,29.595,33.7396,204,173
6577,2003/8/4,20:48:10, 18-33.110N,119-24.149E,229.1,29.595,33.7451,202,173
6578,2003/8/4,20:49:10, 18-33.009N,119-24.018E,226.6,29.588,33.7487,200,173
6579,2003/8/4,20:50:10, 18-32.909N,119-23.889E,235.2,29.583,33.7531,199,173
6580,2003/8/4,20:51:10, 18-32.808N,119-23.763E,231.9,29.577,33.7558,200,173
6581,2003/8/4,20:52:10, 18-32.712N,119-23.639E,238.6,29.569,33.7588,199,173
6582,2003/8/4,20:53:10, 18-32.610N,119-23.518E,232.1,29.569,33.7598,201,173
6583,2003/8/4,20:54:10, 18-32.512N,119-23.387E,233.9,29.565,33.762,201,173
6584,2003/8/4,20:55:10, 18-32.410N,119-23.263E,231.2,29.557,33.7641,206,173
6585,2003/8/4,20:56:10, 18-32.311N,119-23.137E,239.4,29.555,33.7644,208,173
6586,2003/8/4,20:57:10, 18-32.217N,119-23.008E,231.1,29.537,33.7664,202,173
6587,2003/8/4,20:58:10, 18-32.120N,119-22.884E,238.4,29.523,33.7685,204,173
6588,2003/8/4,20:59:10, 18-32.028N,119-22.756E,230.4,29.508,33.7696,200,173
6589,2003/8/4,21:00:10, 18-31.938N,119-22.628E,239.6,29.499,33.7702,205,173
6590,2003/8/4,21:01:10, 18-31.847N,119-22.508E,231,29.501,33.7737,198,173
6591,2003/8/4,21:02:10, 18-31.758N,119-22.383E,224.3,29.495,33.7769,197,173
6592,2003/8/4,21:03:10, 18-31.668N,119-22.263E,230.2,29.486,33.7791,209,173
6593,2003/8/4,21:04:10, 18-31.580N,119-22.144E,221.9,29.48,33.782,202,173
6594,2003/8/4,21:05:10, 18-31.492N,119-22.019E,233.3,29.469,33.7851,208,173
6595,2003/8/4,21:06:10, 18-31.402N,119-21.894E,233,29.451,33.787,208,173
6596,2003/8/4,21:07:10, 18-31.312N,119-21.767E,231.6,29.441,33.7875,205,173
6597,2003/8/4,21:08:10, 18-31.213N,119-21.633E,233.6,29.421,33.7868,203,173
6598,2003/8/4,21:09:10, 18-31.117N,119-21.499E,232,29.396,33.7901,208,173
6599,2003/8/4,21:10:10, 18-31.020N,119-21.363E,236.1,29.382,33.7905,208,173
6600,2003/8/4,21:11:10, 18-30.922N,119-21.224E,229.9,29.384,33.7899,199,173
6601,2003/8/4,21:12:10, 18-30.818N,119-21.087E,234.5,29.366,33.7891,206,173
6602,2003/8/4,21:13:10, 18-30.718N,119-20.947E,230,29.352,33.79,208,173
6603,2003/8/4,21:14:10, 18-30.617N,119-20.810E,234,29.345,33.79,208,173
6604,2003/8/4,21:15:10, 18-30.519N,119-20.673E,227.1,29.34,33.7901,202,173
6605,2003/8/4,21:16:10, 18-30.417N,119-20.533E,234.3,29.322,33.7935,208,173
6606,2003/8/4,21:17:10, 18-30.315N,119-20.396E,236.4,29.301,33.7958,203,173
6607,2003/8/4,21:18:10, 18-30.216N,119-20.258E,219,29.306,33.8046,201,173
6608,2003/8/4,21:19:10, 18-30.117N,119-20.123E,230.6,29.285,33.8161,207,173
6609,2003/8/4,21:20:10, 18-30.021N,119-19.983E,229.3,29.267,33.8313,206,173
6610,2003/8/4,21:21:10, 18-29.917N,119-19.840E,239.1,29.237,33.8471,206,173
6611,2003/8/4,21:22:10, 18-29.816N,119-19.698E,232.6,29.194,33.8569,205,173
6612,2003/8/4,21:23:10, 18-29.714N,119-19.555E,224.3,29.124,33.8669,206,173
6613,2003/8/4,21:24:10, 18-29.609N,119-19.418E,226.9,29.102,33.8729,203,173
6614,2003/8/4,21:25:10, 18-29.505N,119-19.274E,225,29.081,33.8773,202,173
6615,2003/8/4,21:26:10, 18-29.404N,119-19.134E,233.7,29.073,33.881,197,173
6616,2003/8/4,21:27:10, 18-29.302N,119-18.993E,229,29.068,33.8862,208,173
6617,2003/8/4,21:28:10, 18-29.199N,119-18.844E,238.3,29.072,33.8893,204,173
6618,2003/8/4,21:29:10, 18-29.093N,119-18.703E,248.6,29.058,33.8884,204,173
6619,2003/8/4,21:30:10, 18-28.991N,119-18.561E,224.2,29.052,33.8882,203,173
6620,2003/8/4,21:31:10, 18-28.891N,119-18.420E,223,29.035,33.8903,199,173
6621,2003/8/4,21:32:10, 18-28.790N,119-18.284E,222.1,29.028,33.8902,201,173
6622,2003/8/4,21:33:10, 18-28.689N,119-18.147E,234,29.036,33.8966,205,173
6623,2003/8/4,21:34:10, 18-28.591N,119-18.005E,224.3,29.032,33.9025,198,173
6624,2003/8/4,21:35:10, 18-28.490N,119-17.867E,237.2,29.022,33.9083,202,173
6625,2003/8/4,21:36:10, 18-28.390N,119-17.731E,235.9,29.019,33.9121,202,173
6626,2003/8/4,21:37:10, 18-28.289N,119-17.593E,230.2,29.034,33.912,201,173
6627,2003/8/4,21:38:10, 18-28.185N,119-17.456E,232,29.039,33.9103,200,173
6628,2003/8/4,21:39:10, 18-28.087N,119-17.319E,228.7,29.04,33.9097,202,173
6629,2003/8/4,21:40:10, 18-27.985N,119-17.180E,236.7,29.039,33.9085,210,173
6630,2003/8/4,21:41:10, 18-27.882N,119-17.046E,233.2,29.041,33.9086,208,173
6631,2003/8/4,21:42:10, 18-27.782N,119-16.910E,235.8,29.04,33.9088,208,173